Location: SE Lincoln, NE
(40.7805°N, 96.6275°W)
Time: 06:56:58
(UTC-05:00)

Daily predictions for brighter satellites

Satellite Brightness Start Highest point End
(mag) Time Altitude Azimuth Time Altitude Azimuth Time Altitude Azimuth
Lacrosse 5 2.3 19:35:02 10° NW 19:40:04 66° SW 19:45:06 10° SSE
Cosmos 1190 Rocket 4.2 19:35:22 10° SSW 19:40:35 82° WNW 19:45:49 10° NNE
Cosmos 1954 Rocket 4.0 19:36:37 10° S 19:41:43 67° ESE 19:46:51 10° NNE
Cosmos 1697 Rocket 2.8 19:36:53 10° S 19:42:20 57° ESE 19:47:50 10° NNE
KORONAS-FOTON 4.2 19:38:42 10° N 19:42:24 42° ENE 19:46:04 10° SSE
ASTEX 1 3.6 19:38:28 10° NNE 19:43:17 49° E 19:48:06 10° SSE
Cosmos 2279 Rocket 4.5 19:39:04 10° N 19:44:51 38° ENE 19:50:37 10° SE
Cosmos 1733 4.2 19:42:27 10° SE 19:45:30 24° E 19:48:33 10° NE
ISS -1.2 19:43:52 10° NNW 19:45:34 13° N 19:47:16 10° NE
Cosmos 1842 4.1 19:42:47 10° NNW 19:46:33 55° W 19:50:19 10° S
Cosmos 1634 Rocket 4.0 19:40:57 10° N 19:47:05 62° E 19:53:10 10° SSE
Cosmos 1242 Rocket 3.4 19:47:16 10° SSE 19:50:21 28° E 19:53:28 10° NNE
Cosmos 1707 2.6 19:46:57 10° N 19:50:45 80° E 19:54:32 10° S
CZ-2C R/B 2.0 19:48:21 10° WSW 19:51:14 29° S 19:54:14 10° ESE
Cosmos 1763 Rocket 3.6 19:48:46 10° N 19:53:42 49° ENE 19:58:37 10° SE
Cosmos 1733 Rocket 3.7 19:49:51 10° SSE 19:53:50 34° E 19:57:51 10° NNE
Spot 1 4.0 19:54:27 10° NNE 19:58:45 89° WNW 20:02:51 10° SSW
HJ-1C 3.6 19:58:26 10° SE 20:01:22 40° ENE 20:04:19 10° N
SL-4 R/B 4.2 19:59:02 10° NW 20:02:22 20° N 20:05:51 10° NE
COSMO-SKYMED 1 3.7 19:58:42 10° N 20:02:54 49° WNW 20:07:05 10° SSW
PAYLOAD B 4.3 19:58:56 10° SSE 20:04:28 83° WSW 20:10:00 10° NNW
USA 229 DEB 4.3 19:57:44 10° NNW 20:04:51 48° NE 20:12:05 11° ESE
USA 229 4.3 19:57:50 10° NNW 20:04:56 48° NE 20:12:07 11° ESE
Cosmos 2227 Rocket 2.2 20:01:29 10° NNW 20:07:10 81° ENE 20:12:49 10° SSE
CZ-4B R/B 3.1 20:02:39 10° SSE 20:07:56 74° ENE 20:13:21 10° N
CSL-04 Rocket 4.5 20:17:45 16° ESE 20:20:59 29° ENE 20:25:33 10° N
Cosmos 1980 Rocket 2.2 20:15:46 10° S 20:21:16 59° ESE 20:26:49 10° NNE
Cosmos 2297 Rocket 3.2 20:16:19 10° NW 20:21:46 49° WSW 20:27:10 10° S
SL-14 R/B 3.7 20:18:22 10° N 20:22:04 38° ENE 20:24:57 15° SE
Cosmos 1626 2.5 20:18:29 10° NNW 20:22:05 62° W 20:25:39 10° S
Cosmos 2369 3.7 20:16:55 10° S 20:22:34 65° ESE 20:28:14 10° NNE
Okean O Rocket 1.5 20:18:20 10° SSE 20:22:39 75° ENE 20:27:01 10° N
Cosmos 2084 3.0 20:20:37 10° SSW 20:24:27 79° ESE 20:28:15 10° NE
BREEZE-M DEB (TANK) 4.1 20:26:26 10° WSW 20:30:46 80° NNW 20:48:47 10° ENE
Cosmos 2278 4.1 20:25:57 10° S 20:31:08 38° ESE 20:36:20 10° NE
NOSS 3-1 (A) 4.2 20:24:40 10° NW 20:32:24 88° ENE 20:41:26 10° SSE
Cosmos 1805 3.1 20:28:40 10° S 20:32:32 89° E 20:36:26 10° N
Helios 1B 4.4 20:30:56 10° NNE 20:35:16 69° ESE 20:39:34 10° S
Cosmos 1908 Rocket 4.2 20:33:27 22° SE 20:35:21 32° E 20:39:12 10° NNE
OBJECT-B 1.8 20:36:48 23° NNE 20:36:48 23° NNE 20:38:10 10° N
Timation 2 Rocket 4.5 20:30:54 10° NNW 20:37:00 41° ENE 20:39:59 26° ESE
BREEZE M DEB (TANK) 3.1 20:31:26 10° SW 20:39:12 41° SSE 20:40:20 33° ESE
GENESIS II 4.5 20:37:50 10° NW 20:41:55 71° WSW 20:44:27 22° SSE
Cosmos 1766 3.3 20:38:42 10° S 20:42:28 52° E 20:46:16 10° NNE
NOSS 2-2 (D) 4.5 20:38:56 10° NW 20:44:17 83° WSW 20:51:01 13° SSE
YAOGAN 1 3.7 20:44:25 10° S 20:48:32 45° W 20:52:42 10° NNW
CZ-4 R/B 2.1 20:48:41 10° S 20:52:44 56° W 20:56:51 10° NNW
Meteor 2-16 Rocket 4.5 20:48:16 10° SSE 20:54:11 54° E 21:00:09 10° NNE
Nadezhda 4 Rocket 3.9 20:47:54 10° S 20:54:11 74° E 21:00:30 10° N
Cosmos 1674 Rocket 3.4 20:49:58 10° N 20:54:22 81° E 20:57:04 23° SSE
Cosmos 2219 4.1 20:49:41 10° NNW 20:55:14 50° WSW 21:00:45 10° S
Resurs 01 Rocket 3.5 21:03:06 18° NE 21:03:06 18° NE 21:04:45 10° NNE
Cosmos 2221 Rocket 4.1 20:57:22 10° NNW 21:01:49 60° W 21:06:16 10° S
CZ-3 Stage 3 4.2 20:58:22 10° WSW 21:04:10 47° S 21:13:32 28° ESE
Landsat 5 3.8 21:03:41 10° N 21:08:12 75° WNW 21:12:38 10° SSW
Hubble Space Telescope 3.0 21:06:35 10° SW 21:08:12 14° SSW 21:08:12 14° SSW
CRYOSAT 2 4.3 21:09:00 56° ESE 21:09:22 58° E 21:14:11 10° N
Cosmos 2263 Rocket 2.1 21:05:57 10° NNW 21:11:38 67° ENE 21:12:56 51° ESE
JB-3 4.4 21:09:12 10° NNE 21:12:45 65° NNE 21:12:45 65° NNE
SJ-6B 2.7 21:13:39 75° NW 21:13:39 75° NW 21:17:09 10° NNW
Cosmos 1726 3.3 21:11:17 10° SSW 21:14:43 41° W 21:18:13 10° N
Cosmos 2082 4.0 21:10:27 10° NNW 21:16:08 64° WSW 21:19:26 25° S
H-2A R/B 4.1 21:20:53 22° NNE 21:20:53 22° NNE 21:22:29 10° N
Okean-O 2.6 21:21:34 74° SSW 21:21:56 82° WSW 21:26:23 10° NNW
ISS -1.5 21:20:17 10° NW 21:21:54 20° NNW 21:21:54 20° NNW
Meteor 1-12 Rocket 4.5 21:18:33 10° SSW 21:24:29 75° W 21:30:32 10° N
Cosmos 841 Rocket 3.8 21:19:51 10° NNW 21:24:58 62° WSW 21:26:49 38° S
CSL-04 Debris 4.5 21:25:06 26° S 21:28:09 64° WSW 21:33:32 10° NNW
Cosmos 1092 Rocket 3.9 21:23:31 19° S 21:28:12 76° E 21:34:30 10° N
CZ-2C R/B 3.4 21:27:01 10° WSW 21:28:00 15° SW 21:28:00 15° SW
Resurs 1-3 3.8 21:31:14 65° NNW 21:31:14 65° NNW 21:35:01 10° NNW
USA 81 4.4 21:33:15 10° N 21:37:19 51° NNE 21:37:19 51° NNE
SL-4 R/B 3.8 21:38:55 10° NW 21:42:11 28° N 21:42:11 28° N
BREEZE-M DEB (TANK) 4.4 21:41:47 10° WNW 21:43:06 30° WNW 21:43:06 30° WNW
Landsat 7 4.4 21:50:12 55° WNW 21:50:12 55° WNW 21:54:16 10° NNW
Cosmos 1980 Rocket 4.5 22:01:23 10° WSW 22:05:40 22° NW 22:09:58 10° N
Meteor 1-24 Rocket 4.4 22:03:45 10° NNW 22:07:43 48° NW 22:07:43 48° NW
Resurs 01 Rocket 4.4 22:40:40 15° NW 22:40:40 15° NW 22:41:37 10° NNW
Cosmos 1844 Rocket 4.4 22:33:44 10° NNW 22:36:11 27° NNW 22:36:11 27° NNW
